Back to catalog

FENGYUN 1C DEB

AliveSSO
NORAD 32440·DEBRIS·🇨🇳 China

Launched May 10, 1999 from Taiyuan Satellite Launch Center

Loading…

Next Passes (next 24 hours)

TLE

FreshSource: Space-Track

Epoch: Sep 14, 2026, 08:36 UTC

1 32440U 99025DBC 26257.35884495  .00001721  00000-0  15956-2 0  9995
2 32440  99.1353 100.9996 0320273  98.4101 265.3478 13.62790678640384

Track FENGYUN 1C DEB in real time with AllMySat

Download on the App Store